Location: Burgwalden
(48.2830°N, 10.7576°E)
Time: 21:17:18
(UTC+00:00)

Cosmos 2221 - Pass Details

Date: 26 September 2023
Orbit: 584 x 608 km, 82.5° (Epoch: 09 December)

Event Time Altitude Azimuth Distance (km) Brightness Sun altitude
Exits shadow 02:42:56 42° 148° (SSE) 856 3.2 -24.2°
Maximum altitude 02:44:03 57° 95° (E) 708 3.0 -24.0°
Drops below altitude 10° 02:48:17 10° 17° (NNE) 1,956 5.7 -23.4°
Enters shadow 03:52:06 -53° 198° (SSW) 10,881 8.8 -13.4°
